When you browse on this site, cookies collect data to enhance your experience and personalize the content and advertising you see.
Visit our Privacy Policy to learn more. By continuing to use the site, you agree to this use of cookies and data.
  • In Romania
  • List of Countries
  • For 7 days
  • Water Temperature
  • Satellite Maps
  • Weather Map
  • Weather Widgets
  • user-avatar
    Login

    Hourly Weather Zelazow

    Today, 22 February, Friday

    Time Temperature Precipitation Wind Pressure Humidity
    00:00 +5°C° 1.1 mm 5 mps 743 mmHg 91%
    01:00 +5°C° 0 mm 4 mps 743 mmHg 92%
    02:00 +5°C° 0.7 mm 4 mps 743 mmHg 93%
    03:00 +5°C° 0.7 mm 5 mps 743 mmHg 94%
    04:00 +5°C° 0.7 mm 5 mps 744 mmHg 95%
    05:00 +3°C° 0.3 mm 5 mps 745 mmHg 93%
    06:00 +2°C° 0.3 mm 6 mps 746 mmHg 91%
    07:00 +1°C° 0 mm 5 mps 747 mmHg 87%
    08:00 0°C° 0.1 mm 5 mps 748 mmHg 83%
    09:00 -1°C° 0.1 mm 5 mps 749 mmHg 80%
    10:00 -3°C° 0.1 mm 6 mps 750 mmHg 76%
    11:00 -3°C° 0 mm 6 mps 751 mmHg 69%
    12:00 -1°C° 0 mm 5 mps 752 mmHg 61%
    13:00 -1°C° 0 mm 5 mps 753 mmHg 51%
    14:00 -1°C° 0 mm 5 mps 754 mmHg 50%
    15:00 -2°C° 0 mm 5 mps 754 mmHg 49%
    16:00 -2°C° 0 mm 5 mps 754 mmHg 48%
    17:00 -3°C° 0 mm 4 mps 755 mmHg 51%
    18:00 -4°C° 0 mm 3 mps 756 mmHg 54%
    19:00 -5°C° 0 mm 3 mps 757 mmHg 58%
    20:00 -5°C° 0 mm 3 mps 757 mmHg 57%
    21:00 -4°C° 0 mm 2 mps 758 mmHg 56%
    22:00 -4°C° 0 mm 2 mps 758 mmHg 56%
    23:00 -4°C° 0 mm 2 mps 759 mmHg 54%

    Tomorrow, 23 February, Saturday

    Time Temperature Precipitation Wind Pressure Humidity
    00:00 -4°C° 0 mm 2 mps 759 mmHg 52%
    01:00 -4°C° 0 mm 2 mps 759 mmHg 51%
    02:00 -3°C° 0 mm 1 mps 759 mmHg 50%
    03:00 -3°C° 0 mm 1 mps 759 mmHg 50%
    04:00 -3°C° 0 mm 1 mps 759 mmHg 49%
    05:00 -3°C° 0 mm 1 mps 759 mmHg 49%
    06:00 -3°C° 0 mm 1 mps 759 mmHg 49%
    07:00 -3°C° 0 mm 1 mps 759 mmHg 49%
    08:00 -2°C° 0 mm 1 mps 759 mmHg 43%
    09:00 -3°C° 0 mm 2 mps 759 mmHg 38%
    10:00 -2°C° 0 mm 2 mps 759 mmHg 32%
    11:00 -2°C° 0 mm 2 mps 759 mmHg 30%
    12:00 -1°C° 0 mm 2 mps 759 mmHg 28%
    13:00 +1°C° 0 mm 2 mps 759 mmHg 26%
    14:00 +1°C° 0 mm 2 mps 759 mmHg 27%
    15:00 +1°C° 0 mm 2 mps 758 mmHg 28%
    16:00 +1°C° 0 mm 2 mps 758 mmHg 30%
    17:00 -1°C° 0 mm 2 mps 758 mmHg 34%
    18:00 -2°C° 0 mm 2 mps 758 mmHg 38%
    19:00 -3°C° 0 mm 2 mps 758 mmHg 41%
    20:00 -3°C° 0 mm 2 mps 757 mmHg 41%
    21:00 -3°C° 0 mm 2 mps 757 mmHg 40%
    22:00 -3°C° 0 mm 2 mps 757 mmHg 40%
    23:00 -1°C° 0 mm 1 mps 757 mmHg 38%

    Day after tomorrow, 24 February, Sunday

    Time Temperature Precipitation Wind Pressure Humidity
    00:00 -1°C° 0 mm 1 mps 757 mmHg 36%
    01:00 0°C° 0 mm 1 mps 757 mmHg 35%
    02:00 0°C° 0 mm 1 mps 757 mmHg 34%
    03:00 0°C° 0 mm 1 mps 756 mmHg 33%
    04:00 -1°C° 0 mm 0 mps 756 mmHg 32%
    05:00 -1°C° 0 mm 0 mps 756 mmHg 32%
    06:00 +1°C° 0 mm 1 mps 756 mmHg 31%
    07:00 +1°C° 0 mm 1 mps 756 mmHg 31%
    08:00 +2°C° 0 mm 1 mps 756 mmHg 29%
    09:00 +4°C° 0 mm 1 mps 756 mmHg 28%
    10:00 +5°C° 0 mm 1 mps 756 mmHg 26%
    11:00 +6°C° 0 mm 1 mps 756 mmHg 27%
    12:00 +6°C° 0 mm 2 mps 756 mmHg 28%
    13:00 +8°C° 0 mm 2 mps 756 mmHg 28%
    14:00 +7°C° 0 mm 2 mps 755 mmHg 34%
    15:00 +7°C° 0 mm 2 mps 755 mmHg 40%
    16:00 +6°C° 0 mm 2 mps 755 mmHg 45%
    17:00 +5°C° 0 mm 2 mps 755 mmHg 48%
    18:00 +4°C° 0 mm 2 mps 755 mmHg 51%
    19:00 +2°C° 0 mm 2 mps 755 mmHg 53%
    20:00 +2°C° 0 mm 2 mps 755 mmHg 54%
    21:00 +2°C° 0 mm 2 mps 755 mmHg 55%
    22:00 +2°C° 0 mm 2 mps 756 mmHg 56%
    23:00 +2°C° 0 mm 2 mps 756 mmHg 57%

    25 February, Monday

    Time Temperature Precipitation Wind Pressure Humidity
    00:00 +2°C° 0 mm 2 mps 756 mmHg 58%
    01:00 +2°C° 0 mm 2 mps 756 mmHg 59%
    02:00 +1°C° 0 mm 2 mps 756 mmHg 60%
    03:00 +1°C° 0 mm 2 mps 755 mmHg 61%
    04:00 +1°C° 0 mm 2 mps 755 mmHg 62%
    05:00 +1°C° 0 mm 2 mps 755 mmHg 63%
    06:00 +1°C° 0 mm 2 mps 755 mmHg 65%
    07:00 +1°C° 0 mm 2 mps 755 mmHg 66%
    08:00 +2°C° 0 mm 2 mps 756 mmHg 62%
    09:00 +3°C° 0 mm 3 mps 756 mmHg 59%
    10:00 +4°C° 0 mm 3 mps 756 mmHg 55%
    11:00 +5°C° 0 mm 3 mps 756 mmHg 56%
    12:00 +7°C° 0 mm 3 mps 756 mmHg 58%
    13:00 +8°C° 0 mm 3 mps 756 mmHg 59%
    14:00 +8°C° 0 mm 3 mps 755 mmHg 62%
    15:00 +8°C° 0 mm 2 mps 755 mmHg 64%
    16:00 +8°C° 0 mm 2 mps 755 mmHg 66%
    17:00 +7°C° 0 mm 2 mps 754 mmHg 71%
    18:00 +6°C° 0 mm 2 mps 754 mmHg 75%
    19:00 +4°C° 0 mm 2 mps 754 mmHg 80%
    20:00 +4°C° 0 mm 2 mps 754 mmHg 79%
    21:00 +4°C° 0 mm 2 mps 754 mmHg 79%
    22:00 +2°C° 0 mm 3 mps 754 mmHg 78%
    23:00 +2°C° 0 mm 3 mps 754 mmHg 77%

    26 February, Tuesday

    Time Temperature Precipitation Wind Pressure Humidity
    00:00 +2°C° 0 mm 3 mps 754 mmHg 76%
    01:00 +2°C° 0 mm 3 mps 754 mmHg 75%
    02:00 +2°C° 0 mm 3 mps 753 mmHg 74%
    03:00 +2°C° 0 mm 3 mps 753 mmHg 73%
    04:00 +2°C° 0 mm 3 mps 753 mmHg 72%
    05:00 +2°C° 0 mm 3 mps 753 mmHg 70%
    06:00 +2°C° 0 mm 3 mps 752 mmHg 68%
    07:00 +1°C° 0 mm 4 mps 752 mmHg 66%
    08:00 +3°C° 0 mm 4 mps 752 mmHg 61%
    09:00 +5°C° 0 mm 5 mps 752 mmHg 56%
    10:00 +7°C° 0 mm 5 mps 752 mmHg 51%
    11:00 +8°C° 0 mm 5 mps 752 mmHg 49%
    12:00 +9°C° 0 mm 6 mps 752 mmHg 46%
    13:00 +10°C° 0 mm 6 mps 751 mmHg 44%
    14:00 +10°C° 0 mm 6 mps 751 mmHg 46%
    15:00 +10°C° 0 mm 6 mps 751 mmHg 48%
    16:00 +10°C° 0 mm 6 mps 751 mmHg 50%
    17:00 +8°C° 0 mm 5 mps 751 mmHg 56%
    18:00 +7°C° 0 mm 4 mps 751 mmHg 62%
    19:00 +5°C° 0 mm 4 mps 751 mmHg 69%
    20:00 +5°C° 0 mm 3 mps 751 mmHg 72%
    21:00 +4°C° 0 mm 3 mps 751 mmHg 75%
    22:00 +4°C° 0 mm 3 mps 751 mmHg 78%
    23:00 +4°C° 0 mm 3 mps 751 mmHg 79%

    27 February, Wednesday

    Time Temperature Precipitation Wind Pressure Humidity
    00:00 +4°C° 0 mm 2 mps 751 mmHg 80%
    01:00 +4°C° 0 mm 2 mps 751 mmHg 80%
    02:00 +4°C° 0 mm 2 mps 750 mmHg 80%
    03:00 +3°C° 0 mm 2 mps 750 mmHg 80%
    04:00 +3°C° 0 mm 2 mps 750 mmHg 80%
    05:00 +3°C° 0 mm 2 mps 750 mmHg 80%
    06:00 +3°C° 0 mm 2 mps 750 mmHg 80%
    07:00 +3°C° 0 mm 2 mps 749 mmHg 80%
    08:00 +5°C° 0 mm 2 mps 749 mmHg 73%
    09:00 +7°C° 0 mm 2 mps 749 mmHg 66%
    10:00 +9°C° 0 mm 2 mps 749 mmHg 58%
    11:00 +10°C° 0 mm 3 mps 749 mmHg 54%
    12:00 +12°C° 0 mm 3 mps 748 mmHg 50%
    13:00 +13°C° 0 mm 3 mps 748 mmHg 45%
    14:00 +13°C° 0 mm 3 mps 747 mmHg 47%
    15:00 +13°C° 0 mm 3 mps 746 mmHg 49%
    16:00 +13°C° 0 mm 3 mps 745 mmHg 50%
    17:00 +11°C° 0 mm 3 mps 745 mmHg 56%
    18:00 +10°C° 0 mm 3 mps 745 mmHg 61%
    19:00 +8°C° 0 mm 3 mps 744 mmHg 66%
    20:00 +8°C° 0 mm 3 mps 744 mmHg 65%
    21:00 +8°C° 0 mm 3 mps 743 mmHg 63%
    22:00 +7°C° 0 mm 4 mps 743 mmHg 62%
    23:00 +6°C° 0 mm 4 mps 742 mmHg 64%
    Show more